Change the Weather History Date:

Monday, December 23, 2013

  Actual Average Record
Temperature  
Mean Temperature -6 °F -  
Max Temperature -2 °F 23 °F 42 °F (2005)
Min Temperature -9 °F 9 °F -9 °F (2013)
Degree Days  
Heating Degree Days 70    
Moisture  
Dew Point -12 °F    
Average Humidity 74    
Maximum Humidity 85    
Minimum Humidity 65    
Precipitation  
Precipitation 0.00 in - - ()
Sea Level Pressure  
Sea Level Pressure 30.37 in    
Wind  
Wind Speed 10 mph (WNW)    
Max Wind Speed 14 mph    
Max Gust Speed 21 mph    
Visibility 8 miles    
Events      
Averages and records for this station are not official NWS values.
T = Trace of Precipitation, MM = Missing Value Source: NWS Daily Summary

Daily Weather History Graph

Daily Weather History Graph

Search for Another Location

Airport or City:

Trip Planner

Search our weather history database for the weather conditions in past years. The results will help you decide how hot, cold, wet, or windy it might be!

Date:

Astronomy

Dec. 23, 2013 Rise Set
Actual Time 7:44 AM CST 4:40 PM CST
Civil Twilight 7:12 AM CST 5:13 PM CST
Nautical Twilight 6:35 AM CST 5:49 PM CST
Astronomical Twilight 6:00 AM CST 6:24 PM CST
Moon 11:02 PM CST (12/23) 11:00 AM CST (12/23)
Length of Visible Light 10h 01m
Length of Day
8h 55m
Waning Gibbous, 68% of the Moon is Illuminated
Dec 23
Waning Gibbous
Dec 25
Last Quarter
Jan 1
New
Jan 7
First Quarter
Jan 15
Full

Hourly Weather History & Observations

Time (CST) Temp. Windchill Dew Point Humidity Pressure Visibility Wind Dir Wind Speed Gust Speed Precip Events Conditions
12:11 AM -2.2 °F -18.9 °F -7.6 °F 78% 30.23 in 10.0 mi WNW 10.4 mph - N/A   Clear
12:31 AM -2.2 °F -19.9 °F -5.8 °F 85% 30.23 in 10.0 mi WNW 11.5 mph 17.3 mph N/A   Clear
12:51 AM -2.2 °F -18.0 °F -5.8 °F 85% 30.23 in 7.0 mi WNW 9.2 mph - N/A   Scattered Clouds
1:11 AM -2.2 °F -18.0 °F -5.8 °F 85% 30.24 in 7.0 mi West 9.2 mph - N/A   Scattered Clouds
1:31 AM -2.2 °F -20.7 °F -7.6 °F 78% 30.24 in 10.0 mi WNW 12.7 mph 19.6 mph N/A   Scattered Clouds
1:51 AM -4.0 °F -23.0 °F -9.4 °F 78% 30.25 in 10.0 mi WNW 12.7 mph 17.3 mph N/A   Clear
2:11 AM -4.0 °F -21.2 °F -9.4 °F 78% 30.25 in 10.0 mi WNW 10.4 mph 19.6 mph N/A   Clear
2:31 AM -5.8 °F -24.4 °F -9.4 °F 84% 30.26 in 10.0 mi WNW 11.5 mph 18.4 mph N/A   Clear
2:51 AM -5.8 °F -23.4 °F -9.4 °F 84% 30.26 in 7.0 mi West 10.4 mph 17.3 mph N/A   Clear
3:11 AM -5.8 °F -23.4 °F -11.2 °F 77% 30.27 in 10.0 mi WNW 10.4 mph 19.6 mph N/A   Clear
3:31 AM -5.8 °F -22.4 °F -11.2 °F 77% 30.27 in 10.0 mi WNW 9.2 mph 16.1 mph N/A   Clear
3:51 AM -5.8 °F -24.4 °F -11.2 °F 77% 30.27 in 7.0 mi WNW 11.5 mph 17.3 mph N/A   Scattered Clouds
4:11 AM -7.6 °F -27.5 °F -11.2 °F 84% 30.28 in 7.0 mi WNW 12.7 mph 17.3 mph N/A   Scattered Clouds
4:31 AM -7.6 °F -26.6 °F -13.0 °F 77% 30.28 in 10.0 mi WNW 11.5 mph 17.3 mph N/A   Clear
4:51 AM -7.6 °F -27.5 °F -13.0 °F 77% 30.28 in 10.0 mi WNW 12.7 mph 19.6 mph N/A   Clear
5:11 AM -7.6 °F -26.6 °F -13.0 °F 77% 30.29 in 10.0 mi WNW 11.5 mph 19.6 mph N/A   Clear
5:31 AM -7.6 °F -27.5 °F -13.0 °F 77% 30.29 in 10.0 mi WNW 12.7 mph 20.7 mph N/A   Clear
5:51 AM -7.6 °F -24.6 °F -14.8 °F 71% 30.30 in 10.0 mi WNW 9.2 mph 17.3 mph N/A   Clear
6:11 AM -7.6 °F -24.6 °F -14.8 °F 71% 30.31 in 10.0 mi WNW 9.2 mph - N/A   Clear
6:31 AM -7.6 °F -26.6 °F -14.8 °F 71% 30.31 in 10.0 mi WNW 11.5 mph 19.6 mph N/A   Clear
6:51 AM -9.4 °F -26.8 °F -14.8 °F 77% 30.32 in 7.0 mi WNW 9.2 mph 17.3 mph N/A   Scattered Clouds
7:11 AM -9.4 °F -26.8 °F -14.8 °F 77% 30.33 in 7.0 mi WNW 9.2 mph 16.1 mph N/A   Scattered Clouds
7:31 AM -9.4 °F -24.3 °F -14.8 °F 77% 30.34 in 7.0 mi WNW 6.9 mph 16.1 mph N/A   Scattered Clouds
7:51 AM -9.4 °F -28.9 °F -14.8 °F 77% 30.34 in 5.0 mi WNW 11.5 mph 17.3 mph N/A   Haze
8:11 AM -9.4 °F -26.8 °F -14.8 °F 77% 30.35 in 4.0 mi WNW 9.2 mph 19.6 mph N/A   Haze
8:31 AM -7.6 °F -25.7 °F -14.8 °F 71% 30.35 in 4.0 mi WNW 10.4 mph 17.3 mph N/A   Haze
8:51 AM -7.6 °F -24.6 °F -14.8 °F 71% 30.36 in 5.0 mi WNW 9.2 mph 19.6 mph N/A   Haze
9:11 AM -7.6 °F -24.6 °F -14.8 °F 71% 30.36 in 4.0 mi WNW 9.2 mph 17.3 mph N/A   Haze
9:31 AM -7.6 °F -26.6 °F -14.8 °F 71% 30.37 in 5.0 mi WNW 11.5 mph 20.7 mph N/A   Haze
9:51 AM -7.6 °F -26.6 °F -14.8 °F 71% 30.38 in 5.0 mi WNW 11.5 mph 19.6 mph N/A   Haze
10:11 AM -7.6 °F -26.6 °F -14.8 °F 71% 30.39 in 5.0 mi WNW 11.5 mph 18.4 mph N/A   Haze
10:31 AM -5.8 °F -24.4 °F -14.8 °F 65% 30.39 in 5.0 mi NW 11.5 mph 18.4 mph N/A   Haze
10:51 AM -5.8 °F -25.2 °F -13.0 °F 71% 30.39 in 5.0 mi WNW 12.7 mph 20.7 mph N/A   Haze
11:11 AM -5.8 °F -23.4 °F -11.2 °F 77% 30.39 in 5.0 mi NW 10.4 mph 17.3 mph N/A   Haze
11:31 AM -5.8 °F -24.4 °F -11.2 °F 77% 30.38 in 4.0 mi WNW 11.5 mph 19.6 mph N/A   Haze
11:51 AM -4.0 °F -20.2 °F -11.2 °F 71% 30.37 in 4.0 mi WNW 9.2 mph 17.3 mph N/A   Haze
12:11 PM -4.0 °F -20.2 °F -11.2 °F 71% 30.37 in 7.0 mi NW 9.2 mph 17.3 mph N/A   Clear
12:31 PM -4.0 °F -23.7 °F -11.2 °F 71% 30.37 in 7.0 mi WNW 13.8 mph 19.6 mph N/A   Clear
12:51 PM -4.0 °F -21.2 °F -11.2 °F 71% 30.37 in 5.0 mi NW 10.4 mph 16.1 mph N/A   Haze
1:11 PM -2.2 °F -18.9 °F -11.2 °F 66% 30.38 in 10.0 mi WNW 10.4 mph 18.4 mph N/A   Clear
1:31 PM -2.2 °F -21.5 °F -11.2 °F 66% 30.38 in 7.0 mi WNW 13.8 mph 20.7 mph N/A   Clear
1:50 PM -2.2 °F -19.9 °F -11.2 °F 66% 30.38 in 10.0 mi WNW 11.5 mph 20.7 mph N/A   Clear
2:11 PM -2.2 °F -20.7 °F -11.2 °F 66% 30.38 in 10.0 mi WNW 12.7 mph 18.4 mph N/A   Clear
2:31 PM -2.2 °F -18.0 °F -11.2 °F 66% 30.37 in 10.0 mi WNW 9.2 mph 18.4 mph N/A   Clear
2:51 PM -2.2 °F -19.9 °F -11.2 °F 66% 30.38 in 10.0 mi WNW 11.5 mph 18.4 mph N/A   Clear
3:11 PM -2.2 °F -19.9 °F -9.4 °F 71% 30.39 in 10.0 mi NW 11.5 mph 18.4 mph N/A   Clear
3:31 PM -2.2 °F -18.9 °F -11.2 °F 66% 30.40 in 10.0 mi NW 10.4 mph 19.6 mph N/A   Scattered Clouds
3:51 PM -4.0 °F -21.2 °F -11.2 °F 71% 30.41 in 10.0 mi WNW 10.4 mph 18.4 mph N/A   Scattered Clouds
4:11 PM -4.0 °F -17.8 °F -11.2 °F 71% 30.41 in 10.0 mi WNW 6.9 mph - N/A   Scattered Clouds
4:31 PM -5.8 °F -21.2 °F -11.2 °F 77% 30.42 in 10.0 mi NW 8.1 mph 16.1 mph N/A   Clear
4:51 PM -5.8 °F -24.4 °F -11.2 °F 77% 30.42 in 10.0 mi WNW 11.5 mph 17.3 mph N/A   Clear
5:11 PM -5.8 °F -18.4 °F -11.2 °F 77% 30.42 in 10.0 mi WNW 5.8 mph - N/A   Clear
5:31 PM -5.8 °F -22.4 °F -11.2 °F 77% 30.42 in 10.0 mi WNW 9.2 mph - N/A   Clear
5:51 PM -5.8 °F -21.2 °F -11.2 °F 77% 30.43 in 10.0 mi WNW 8.1 mph - N/A   Clear
6:11 PM -5.8 °F -21.2 °F -11.2 °F 77% 30.44 in 10.0 mi NW 8.1 mph - N/A   Scattered Clouds
6:31 PM -5.8 °F -19.9 °F -11.2 °F 77% 30.44 in 10.0 mi WNW 6.9 mph - N/A   Mostly Cloudy
6:51 PM -5.8 °F -21.2 °F -11.2 °F 77% 30.45 in 7.0 mi WNW 8.1 mph 16.1 mph N/A   Overcast
7:11 PM -5.8 °F -19.9 °F -11.2 °F 77% 30.45 in 10.0 mi WNW 6.9 mph - N/A   Mostly Cloudy
7:31 PM -5.8 °F -19.9 °F -11.2 °F 77% 30.45 in 10.0 mi WNW 6.9 mph - N/A   Scattered Clouds
7:51 PM -5.8 °F -21.2 °F -13.0 °F 71% 30.46 in 10.0 mi NW 8.1 mph - N/A   Clear
8:11 PM -5.8 °F -18.4 °F -13.0 °F 71% 30.45 in 10.0 mi NW 5.8 mph - N/A   Scattered Clouds
8:31 PM -5.8 °F -18.4 °F -13.0 °F 71% 30.45 in 10.0 mi NW 5.8 mph - N/A   Overcast
8:51 PM -5.8 °F -22.4 °F -13.0 °F 71% 30.45 in 10.0 mi NW 9.2 mph - N/A   Overcast
9:11 PM -5.8 °F -21.2 °F -13.0 °F 71% 30.45 in 10.0 mi NW 8.1 mph - N/A   Overcast
9:31 PM -7.6 °F -20.6 °F -13.0 °F 77% 30.45 in 10.0 mi NW 5.8 mph - N/A   Mostly Cloudy
9:51 PM -7.6 °F -20.6 °F -14.8 °F 71% 30.45 in 10.0 mi NW 5.8 mph - N/A   Clear
10:11 PM -7.6 °F -16.5 °F -14.8 °F 71% 30.44 in 10.0 mi NW 3.5 mph - N/A   Clear
10:31 PM -7.6 °F - -14.8 °F 71% 30.44 in 10.0 mi Calm Calm - N/A   Clear
10:51 PM -9.4 °F - -14.8 °F 77% 30.45 in 10.0 mi Calm Calm - N/A   Clear
11:11 PM -9.4 °F - -14.8 °F 77% 30.44 in 10.0 mi Calm Calm - N/A   Clear
11:31 PM -9.4 °F -18.6 °F -14.8 °F 77% 30.45 in 10.0 mi West 3.5 mph - N/A   Clear
11:51 PM -9.4 °F -18.6 °F -14.8 °F 77% 30.44 in 10.0 mi West 3.5 mph - N/A   Clear